| time (UTC) | temp F | wind direction | speed MPH | gust MPH | rain 1hr in | rain 24hr in | rain mn in | humidity % | barometer mb |
| 20260905021529 | 97 | 148 | 0.0 | 0.0 | 0.00 | 2.11 | 1.97 | 35 | 964.6 |
| 20260905020033 | 97 | 148 | 0.0 | 0.0 | 0.00 | 2.11 | 1.97 | 34 | 964.5 |
| 20260905014533 | 98 | 148 | 0.0 | 0.0 | 0.00 | 3.15 | 1.97 | 34 | 964.5 |
| 20260905013030 | 98 | 148 | 0.0 | 0.0 | 0.00 | 3.15 | 1.97 | 34 | 964.4 |
| 20260905011525 | 98 | 148 | 0.0 | 0.0 | 0.00 | 3.15 | 1.97 | 33 | 964.4 |
| 20260905010025 | 99 | 148 | 0.0 | 0.0 | 0.00 | 3.15 | 1.97 | 33 | 964.3 |
| 20260905004537 | 98 | 148 | 0.0 | 0.0 | 0.00 | 3.17 | 1.97 | 34 | 964.4 |
| 20260905003030 | 98 | 148 | 0.0 | 0.0 | 0.00 | 3.17 | 1.97 | 34 | 964.5 |
| 20260905001543 | 98 | 140 | 0.0 | 0.0 | 0.00 | 3.17 | 1.97 | 33 | 964.5 |
| 20260905000021 | 99 | 140 | 0.0 | 5.0 | 0.01 | 3.17 | 1.97 | 33 | 964.5 |
| 20260904234532 | 98 | 146 | 0.0 | 10.0 | 0.01 | 3.19 | 1.97 | 34 | 964.5 |
| 20260904233038 | 99 | 189 | 0.0 | 0.0 | 0.02 | 3.19 | 1.97 | 33 | 964.6 |
| 20260904231524 | 100 | 145 | 0.0 | 9.0 | 0.03 | 3.19 | 1.97 | 33 | 964.7 |
| 20260904230019 | 99 | 238 | 0.0 | 0.0 | 0.09 | 3.18 | 1.96 | 34 | 964.9 |
| 20260904224517 | 99 | 263 | 3.0 | 10.0 | 0.14 | 3.22 | 1.95 | 35 | 965.0 |
| 20260904223015 | 98 | 231 | 0.0 | 6.0 | 0.14 | 3.22 | 1.95 | 35 | 965.1 |
| 20260904221513 | 99 | 210 | 1.0 | 8.0 | 0.28 | 3.21 | 1.94 | 34 | 965.2 |
| 20260904220011 | 99 | 148 | 1.0 | 10.0 | 0.31 | 3.14 | 1.87 | 35 | 965.5 |
| 20260904214510 | 98 | 237 | 0.0 | 8.0 | 0.32 | 3.39 | 1.81 | 36 | 965.7 |
| 20260904213020 | 99 | 169 | 0.0 | 14.0 | 0.36 | 3.39 | 1.81 | 35 | 965.9 |
| 20260904211507 | 100 | 205 | 2.0 | 13.0 | 0.33 | 3.24 | 1.66 | 34 | 966.0 |
| 20260904210005 | 98 | 128 | 3.0 | 10.0 | 0.28 | 3.34 | 1.56 | 35 | 966.1 |
| 20260904204502 | 98 | 150 | 4.0 | 11.0 | 0.33 | 3.27 | 1.49 | 36 | 966.4 |
| 20260904203002 | 96 | 212 | 2.0 | 14.0 | 0.31 | 3.23 | 1.45 | 39 | 966.6 |
| 20260904201601 | 97 | 150 | 3.0 | 10.0 | 0.21 | 3.11 | 1.33 | 38 | 966.7 |
| 20260904200100 | 96 | 167 | 2.0 | 14.0 | 0.21 | 3.05 | 1.27 | 40 | 967.1 |
| 20260904194558 | 95 | 178 | 0.0 | 12.0 | 0.18 | 3.19 | 1.15 | 42 | 967.3 |
| 20260904193113 | 96 | 134 | 0.0 | 6.0 | 0.16 | 3.17 | 1.13 | 42 | 967.5 |
| 20260904191556 | 95 | 180 | 0.0 | 10.0 | 0.17 | 3.15 | 1.12 | 43 | 967.6 |
| 20260904190054 | 95 | 144 | 6.0 | 12.0 | 0.17 | 3.09 | 1.06 | 44 | 967.9 |
| 20260904184552 | 94 | 144 | 2.0 | 12.0 | 0.21 | 3.25 | 0.98 | 45 | 968.1 |
| 20260904183049 | 94 | 145 | 0.0 | 11.0 | 0.24 | 3.25 | 0.98 | 46 | 968.3 |
| 20260904181545 | 93 | 148 | 0.0 | 12.0 | 0.32 | 3.22 | 0.95 | 47 | 968.5 |
| 20260904180042 | 93 | 133 | 0.0 | 10.0 | 0.32 | 3.16 | 0.89 | 48 | 968.6 |
| 20260904174541 | 93 | 126 | 1.0 | 8.0 | 0.22 | 3.07 | 0.77 | 48 | 968.7 |
| 20260904173049 | 92 | 140 | 2.0 | 13.0 | 0.28 | 3.04 | 0.74 | 49 | 968.8 |
| 20260904171536 | 92 | 150 | 3.0 | 13.0 | 0.23 | 2.93 | 0.63 | 50 | 968.8 |
| 20260904170034 | 91 | 146 | 2.0 | 10.0 | 0.25 | 2.87 | 0.56 | 52 | 968.7 |
| 20260904164531 | 91 | 150 | 3.0 | 13.0 | 0.33 | 2.83 | 0.53 | 52 | 968.6 |
| 20260904163028 | 90 | 127 | 3.0 | 10.0 | 0.40 | 2.76 | 0.46 | 53 | 968.5 |
| 20260904161529 | 89 | 117 | 3.0 | 12.0 | 0.39 | 2.70 | 0.40 | 54 | 968.6 |
| 20260904160026 | 89 | 144 | 4.0 | 12.0 | 0.30 | 2.61 | 0.31 | 56 | 968.6 |
| 20260904154525 | 89 | 142 | 5.0 | 11.0 | 0.15 | 2.47 | 0.16 | 56 | 968.5 |
| 20260904153022 | 88 | 103 | 4.0 | 14.0 | 0.05 | 2.37 | 0.06 | 57 | 968.4 |
| 20260904151523 | 88 | 150 | 2.0 | 9.0 | 0.00 | 2.31 | 0.01 | 58 | 968.3 |
| 20260904150026 | 88 | 86 | 2.0 | 9.0 | 0.00 | 2.31 | 0.01 | 58 | 968.3 |
| 20260904144518 | 87 | 132 | 2.0 | 8.0 | 0.00 | 2.31 | 0.01 | 60 | 968.2 |
| 20260904143016 | 86 | 88 | 0.0 | 4.0 | 0.00 | 2.31 | 0.01 | 61 | 968.1 |
| 20260904141614 | 86 | 133 | 0.0 | 8.0 | 0.00 | 2.31 | 0.01 | 62 | 968.0 |
| 20260904123010 | 84 | 135 | 0.0 | 0.0 | 0.00 | 2.31 | 0.01 | 62 | 966.5 |
| 20260904121509 | 84 | 125 | 0.0 | 0.0 | 0.00 | 2.31 | 0.01 | 61 | 966.4 |
| 20260904120007 | 85 | 125 | 0.0 | 0.0 | 0.00 | 2.31 | 0.01 | 61 | 966.3 |
| 20260904114506 | 85 | 144 | 0.0 | 0.0 | 0.00 | 2.31 | 0.01 | 60 | 966.3 |
| 20260904113004 | 85 | 144 | 0.0 | 7.0 | 0.00 | 2.31 | 0.01 | 60 | 966.3 |
| 20260904111503 | 86 | 144 | 0.0 | 8.0 | 0.00 | 2.31 | 0.01 | 59 | 966.3 |
| 20260904110002 | 86 | 134 | 1.0 | 7.0 | 0.00 | 2.31 | 0.01 | 59 | 966.3 |
| 20260904104502 | 86 | 138 | 0.0 | 0.0 | 0.00 | 2.31 | 0.01 | 59 | 966.2 |
| 20260904103104 | 86 | 138 | 0.0 | 0.0 | 0.00 | 2.31 | 0.01 | 58 | 966.1 |
| 20260904101558 | 86 | 137 | 0.0 | 9.0 | 0.00 | 2.31 | 0.01 | 58 | 966.0 |
| 20260904100121 | 86 | 134 | 0.0 | 0.0 | 0.00 | 2.31 | 0.01 | 57 | 966.0 |
| 20260904094557 | 86 | 131 | 0.0 | 4.0 | 0.00 | 2.31 | 0.01 | 57 | 966.0 |
| 20260904093103 | 86 | 136 | 0.0 | 0.0 | 0.00 | 2.31 | 0.01 | 56 | 965.9 |
| 20260904091559 | 86 | 171 | 0.0 | 1.0 | 0.00 | 2.31 | 0.01 | 56 | 965.9 |
| 20260904090056 | 86 | 171 | 0.0 | 0.0 | 0.00 | 2.31 | 0.01 | 57 | 965.9 |
| 20260904084604 | 86 | 171 | 0.0 | 0.0 | 0.00 | 2.31 | 0.01 | 57 | 965.9 |
| 20260904083056 | 86 | 171 | 0.0 | 0.0 | 0.01 | 2.31 | 0.01 | 57 | 965.9 |
| 20260904081555 | 86 | 171 | 0.0 | 5.0 | 0.01 | 2.31 | 0.01 | 57 | 966.1 |
| 20260904080051 | 86 | 143 | 0.0 | 0.0 | 0.01 | 2.31 | 0.01 | 56 | 966.1 |
| 20260904074601 | 87 | 140 | 2.0 | 7.0 | 0.01 | 2.31 | 0.01 | 56 | 966.1 |
| 20260904073047 | 87 | 144 | 0.0 | 7.0 | 0.02 | 2.31 | 0.00 | 56 | 966.0 |
| 20260904071610 | 87 | 145 | 1.0 | 7.0 | 0.05 | 2.31 | 0.00 | 55 | 966.0 |
| 20260904070047 | 88 | 130 | 0.0 | 7.0 | 0.13 | 2.31 | 0.00 | 54 | 965.9 |
| 20260904064601 | 88 | 121 | 0.0 | 9.0 | 0.13 | 2.31 | 2.31 | 54 | 965.6 |
| 20260904063050 | 89 | 143 | 5.0 | 11.0 | 0.11 | 2.29 | 2.29 | 53 | 965.6 |
| 20260904061542 | 89 | 167 | 3.0 | 8.0 | 0.05 | 2.23 | 2.23 | 52 | 965.5 |
| 20260904060042 | 90 | 140 | 1.0 | 7.0 | 0.00 | 2.18 | 2.18 | 51 | 965.4 |
| 20260904054541 | 90 | 149 | 0.0 | 5.0 | 0.00 | 2.18 | 2.18 | 50 | 965.3 |
| 20260904053050 | 90 | 150 | 0.0 | 8.0 | 0.00 | 2.18 | 2.18 | 49 | 965.3 |
| 20260904051541 | 91 | 140 | 0.0 | 8.0 | 0.00 | 2.18 | 2.18 | 48 | 965.2 |
| 20260904050046 | 92 | 136 | 0.0 | 0.0 | 0.00 | 2.18 | 2.18 | 45 | 965.1 |
| 20260904044540 | 92 | 136 | 0.0 | 8.0 | 0.00 | 2.18 | 2.18 | 45 | 965.1 |
| 20260904043043 | 91 | 76 | 0.0 | 0.0 | 0.00 | 2.18 | 2.18 | 45 | 965.1 |
| 20260904041542 | 91 | 76 | 0.0 | 0.0 | 0.00 | 2.18 | 2.18 | 46 | 965.1 |
| 20260904040138 | 91 | 76 | 0.0 | 0.0 | 0.00 | 2.18 | 2.18 | 46 | 964.9 |
| 20260904034538 | 91 | 76 | 0.0 | 0.0 | 0.00 | 2.18 | 2.18 | 46 | 964.6 |
| 20260904033041 | 91 | 76 | 0.0 | 0.0 | 0.00 | 2.18 | 2.18 | 46 | 964.2 |
| 20260904031543 | 91 | 76 | 0.0 | 0.0 | 0.00 | 2.18 | 2.18 | 47 | 964.1 |
| 20260904030038 | 90 | 76 | 0.0 | 0.0 | 0.01 | 2.18 | 2.18 | 47 | 964.0 |
| 20260904024537 | 90 | 76 | 0.0 | 2.0 | 0.05 | 2.18 | 2.18 | 48 | 963.9 |
| 20260904023035 | 91 | 98 | 0.0 | 6.0 | 0.16 | 2.18 | 2.18 | 47 | 963.8 |